Location: Christianberg
(48.9086°N, 14.0209°E)
Time: 22:58:54
(UTC+00:00)

Cosmos 1943 - Pass Details

Date: 20 June 2021
Orbit: 832 x 851 km, 71.0° (Epoch: 04 August)

Event Time Altitude Azimuth Distance (km) Brightness Sun altitude
Exits shadow 01:33:38 - 245° (WSW) 2,534 5.2 -10.5°
Reaches altitude 10° 01:33:54 10° 246° (WSW) 2,446 5.1 -10.4°
Maximum altitude 01:38:58 34° 311° (NW) 1,353 4.3 -10.0°
Drops below altitude 10° 01:44:07 10° 16° (NNE) 2,470 6.9 -9.5°
Sets 01:46:49 0° 25° (NNE) 3,412 8.3 -9.2°
